EWG45K EDDH-EDDC

Flight info

Callsign EWG45K
Flight time 0h 42m
Altitude 23000
Route RAMAR6C RAMAR Z998 NUSGU/N0419F270 Z998 OSKAN EDDC/22
Aircraft A21N/M-SDE2E3FGHIRWXY/LB1

Departure

Time 2026-05-06 10:48
Airport Hamburg Helmut Schmidt Airport (EDDH)

Arrival

Time 2026-05-06 11:31
Airport Dresden Airport (EDDC)
Time Latitude Longitude Altitude Speed Heading
2026-05-06 10:20 53.62805 10.00238 50 ft 0 kts 62°
2026-05-06 10:36 53.62805 10.00236 54 ft 2 kts 62°
2026-05-06 10:36 53.62798 10.00211 49 ft 2 kts 63°
2026-05-06 10:37 53.62790 10.00188 50 ft 2 kts 52°
2026-05-06 10:37 53.62778 10.00168 50 ft 2 kts 36°
2026-05-06 10:37 53.62764 10.00156 52 ft 2 kts 14°
2026-05-06 10:37 53.62752 10.00154 50 ft 1 kts 347°
2026-05-06 10:38 53.62751 10.00155 53 ft 0 kts 343°
2026-05-06 10:38 53.62751 10.00154 53 ft 0 kts 340°
2026-05-06 10:38 53.62753 10.00151 50 ft 0 kts 330°
2026-05-06 10:40 53.62754 10.00150 50 ft 1 kts 330°
2026-05-06 10:40 53.62803 10.00105 54 ft 15 kts 330°
2026-05-06 10:41 53.62813 9.99973 49 ft 12 kts 217°
2026-05-06 10:41 53.62735 9.99897 50 ft 16 kts 207°
2026-05-06 10:41 53.62643 9.99781 53 ft 10 kts 251°
2026-05-06 10:41 53.62623 9.99625 53 ft 18 kts 258°
2026-05-06 10:42 53.62596 9.99384 51 ft 23 kts 259°
2026-05-06 10:42 53.62568 9.99132 54 ft 22 kts 259°
2026-05-06 10:42 53.62537 9.98855 51 ft 29 kts 258°
2026-05-06 10:42 53.62508 9.98598 48 ft 37 kts 259°
2026-05-06 10:43 53.62445 9.98143 49 ft 35 kts 243°
2026-05-06 10:43 53.62297 9.97821 50 ft 31 kts 230°
2026-05-06 10:43 53.62188 9.97598 54 ft 24 kts 231°
2026-05-06 10:44 53.62005 9.97230 51 ft 17 kts 230°
2026-05-06 10:44 53.61923 9.97064 51 ft 19 kts 230°
2026-05-06 10:44 53.61837 9.96889 53 ft 20 kts 229°
2026-05-06 10:44 53.61778 9.96773 52 ft 13 kts 230°
2026-05-06 10:45 53.61720 9.96655 47 ft 9 kts 230°
2026-05-06 10:45 53.61672 9.96544 51 ft 13 kts 252°
2026-05-06 10:45 53.61690 9.96437 50 ft 8 kts 324°
2026-05-06 10:45 53.61717 9.96418 51 ft 0 kts
2026-05-06 10:46 53.61726 9.96418 52 ft 7 kts
2026-05-06 10:46 53.61820 9.96431 50 ft 17 kts
2026-05-06 10:47 53.61886 9.96503 50 ft 7 kts 46°
2026-05-06 10:47 53.61899 9.96527 50 ft 0 kts 51°
2026-05-06 10:47 53.61902 9.96533 50 ft 4 kts 51°
2026-05-06 10:47 53.61915 9.96561 50 ft 16 kts 51°
2026-05-06 10:48 53.62137 9.97006 51 ft 90 kts 50°
2026-05-06 10:48 53.62713 9.98172 138 ft 156 kts 51°
2026-05-06 10:48 53.62932 9.98639 383 ft 157 kts 51°
2026-05-06 10:48 53.63548 10.00114 1187 ft 163 kts 57°
2026-05-06 10:49 53.64164 10.01736 2094 ft 166 kts 60°
2026-05-06 10:49 53.64831 10.03402 2809 ft 186 kts 51°
2026-05-06 10:49 53.65777 10.05164 3332 ft 216 kts 49°
2026-05-06 10:49 53.66823 10.07122 4139 ft 233 kts 51°
2026-05-06 10:50 53.67912 10.09260 4753 ft 246 kts 52°
2026-05-06 10:50 53.69032 10.11537 5462 ft 256 kts 52°
2026-05-06 10:50 53.70165 10.13887 6621 ft 259 kts 52°
2026-05-06 10:50 53.71229 10.16344 7806 ft 262 kts 64°
2026-05-06 10:51 53.71825 10.19289 8861 ft 270 kts 72°
2026-05-06 10:51 53.72356 10.22391 9553 ft 280 kts 75°
2026-05-06 10:51 53.72871 10.25594 9824 ft 284 kts 75°
2026-05-06 10:51 53.73391 10.28823 9855 ft 286 kts 75°
2026-05-06 10:52 53.73937 10.32181 9879 ft 315 kts 75°
2026-05-06 10:52 53.74547 10.35898 9919 ft 338 kts 75°
2026-05-06 10:52 53.75190 10.39804 10522 ft 352 kts 75°
2026-05-06 10:52 53.75650 10.42596 11324 ft 351 kts 75°
2026-05-06 10:53 53.76299 10.46533 12474 ft 352 kts 76°
2026-05-06 10:53 53.76958 10.50540 13528 ft 357 kts 76°
2026-05-06 10:53 53.77629 10.54624 14386 ft 364 kts 76°
2026-05-06 10:53 53.78311 10.58790 15226 ft 372 kts 76°
2026-05-06 10:54 53.78783 10.61676 15736 ft 379 kts 76°
2026-05-06 10:54 53.79213 10.64310 16222 ft 383 kts 76°
2026-05-06 10:54 53.79992 10.68665 17056 ft 391 kts 72°
2026-05-06 10:54 53.80691 10.73115 17927 ft 394 kts 87°
2026-05-06 10:55 53.80446 10.77705 18738 ft 393 kts 108°
2026-05-06 10:55 53.79260 10.81828 19510 ft 392 kts 129°
2026-05-06 10:55 53.77298 10.85020 20262 ft 392 kts 145°
2026-05-06 10:55 53.75140 10.87861 20998 ft 397 kts 141°
2026-05-06 10:56 53.73137 10.91117 21810 ft 402 kts 135°
2026-05-06 10:56 53.71268 10.94667 22494 ft 406 kts 136°
2026-05-06 10:56 53.69051 10.97576 22821 ft 405 kts 149°
2026-05-06 10:56 53.66591 10.99919 22863 ft 406 kts 154°
2026-05-06 10:57 53.64041 11.02067 22867 ft 417 kts 155°
2026-05-06 10:57 53.61380 11.04311 22866 ft 439 kts 154°
2026-05-06 10:57 53.58616 11.06772 22843 ft 456 kts 153°
2026-05-06 10:57 53.55828 11.09404 22911 ft 465 kts 151°
2026-05-06 10:58 53.53029 11.12163 23439 ft 467 kts 150°
2026-05-06 10:58 53.50230 11.14988 23941 ft 470 kts 150°
2026-05-06 10:58 53.47433 11.17837 24455 ft 472 kts 150°
2026-05-06 10:58 53.44619 11.20709 24900 ft 476 kts 150°
2026-05-06 10:59 53.41783 11.23594 25395 ft 477 kts 150°
2026-05-06 10:59 53.38948 11.26467 26038 ft 474 kts 150°
2026-05-06 10:59 53.37084 11.28350 26495 ft 472 kts 150°
2026-05-06 10:59 53.35338 11.30111 26754 ft 468 kts 150°
2026-05-06 11:00 53.32555 11.32911 26838 ft 467 kts 150°
2026-05-06 11:00 53.29764 11.35712 26846 ft 468 kts 150°
2026-05-06 11:00 53.26988 11.38580 26848 ft 470 kts 147°
2026-05-06 11:00 53.24383 11.41888 26833 ft 471 kts 141°
2026-05-06 11:01 53.23573 11.43036 26834 ft 472 kts 140°
2026-05-06 11:01 53.22047 11.45310 26838 ft 472 kts 139°
2026-05-06 11:01 53.19652 11.49062 26843 ft 472 kts 137°
2026-05-06 11:01 53.17304 11.52825 26841 ft 465 kts 137°
2026-05-06 11:02 53.14974 11.56545 26833 ft 462 kts 137°
2026-05-06 11:02 53.12649 11.60215 26841 ft 461 kts 138°
2026-05-06 11:02 53.10303 11.63866 26831 ft 461 kts 138°
2026-05-06 11:02 53.07956 11.67479 26839 ft 461 kts 138°
2026-05-06 11:03 53.05590 11.71092 26828 ft 461 kts 139°
2026-05-06 11:03 53.03230 11.74681 26839 ft 460 kts 139°
2026-05-06 11:03 53.00863 11.78270 26832 ft 461 kts 139°
2026-05-06 11:03 52.98574 11.81989 26831 ft 462 kts 134°
2026-05-06 11:04 52.96480 11.86049 26827 ft 463 kts 130°
2026-05-06 11:04 52.94519 11.90269 26821 ft 463 kts 128°
2026-05-06 11:04 52.92604 11.94589 26821 ft 464 kts 127°
2026-05-06 11:04 52.90711 11.98896 26822 ft 464 kts 127°
2026-05-06 11:05 52.88799 12.03211 26820 ft 464 kts 128°
2026-05-06 11:05 52.86875 12.07496 26819 ft 463 kts 128°
2026-05-06 11:05 52.84939 12.11759 26820 ft 463 kts 128°
2026-05-06 11:05 52.82993 12.16009 26823 ft 463 kts 129°
2026-05-06 11:06 52.81042 12.20245 26806 ft 463 kts 129°
2026-05-06 11:06 52.79086 12.24478 26807 ft 464 kts 129°
2026-05-06 11:06 52.77124 12.28713 26814 ft 464 kts 129°
2026-05-06 11:06 52.75163 12.32939 26810 ft 464 kts 129°
2026-05-06 11:07 52.73197 12.37171 26812 ft 464 kts 129°
2026-05-06 11:07 52.71219 12.41386 26808 ft 464 kts 131°
2026-05-06 11:07 52.68902 12.45026 26809 ft 460 kts 143°
2026-05-06 11:07 52.66266 12.48017 26808 ft 459 kts 149°
2026-05-06 11:08 52.63512 12.50663 26803 ft 459 kts 152°
2026-05-06 11:08 52.62764 12.51344 26804 ft 459 kts 153°
2026-05-06 11:08 52.59918 12.53900 26804 ft 459 kts 153°
2026-05-06 11:08 52.57122 12.56427 26803 ft 458 kts 152°
2026-05-06 11:09 52.54347 12.58998 26801 ft 457 kts 152°
2026-05-06 11:09 52.51597 12.61609 26803 ft 456 kts 151°
2026-05-06 11:09 52.48864 12.64249 26800 ft 456 kts 150°
2026-05-06 11:09 52.46137 12.66910 26798 ft 456 kts 150°
2026-05-06 11:10 52.43418 12.69573 26796 ft 456 kts 150°
2026-05-06 11:10 52.40696 12.72240 26800 ft 456 kts 150°
2026-05-06 11:10 52.37973 12.74903 26798 ft 456 kts 150°
2026-05-06 11:10 52.35251 12.77559 26797 ft 456 kts 150°
2026-05-06 11:11 52.32529 12.80209 26793 ft 456 kts 150°
2026-05-06 11:11 52.29802 12.82858 26794 ft 456 kts 151°
2026-05-06 11:11 52.27088 12.85489 26729 ft 454 kts 151°
2026-05-06 11:11 52.24367 12.88125 26372 ft 452 kts 151°
2026-05-06 11:12 52.21669 12.90746 26001 ft 451 kts 151°
2026-05-06 11:12 52.18972 12.93367 25603 ft 450 kts 152°
2026-05-06 11:12 52.16298 12.95965 25230 ft 448 kts 153°
2026-05-06 11:12 52.13623 12.98560 24858 ft 446 kts 153°
2026-05-06 11:13 52.10969 13.01130 24508 ft 443 kts 153°
2026-05-06 11:13 52.08332 13.03681 24157 ft 441 kts 153°
2026-05-06 11:13 52.05697 13.06222 23793 ft 439 kts 153°
2026-05-06 11:13 52.03080 13.08743 23418 ft 437 kts 153°
2026-05-06 11:14 52.00474 13.11253 23022 ft 434 kts 154°
2026-05-06 11:14 51.97884 13.13742 22599 ft 432 kts 154°
2026-05-06 11:14 51.95305 13.16217 22188 ft 430 kts 154°
2026-05-06 11:14 51.92740 13.18675 21785 ft 427 kts 154°
2026-05-06 11:15 51.90189 13.21117 21388 ft 425 kts 154°
2026-05-06 11:15 51.87651 13.23543 20930 ft 423 kts 154°
2026-05-06 11:15 51.85279 13.25808 20434 ft 421 kts 154°
2026-05-06 11:15 51.82729 13.28234 19937 ft 432 kts 154°
2026-05-06 11:16 51.80115 13.30716 19439 ft 435 kts 154°
2026-05-06 11:16 51.77553 13.33155 18957 ft 421 kts 154°
2026-05-06 11:16 51.75059 13.35524 18454 ft 412 kts 154°
2026-05-06 11:16 51.74227 13.36313 18298 ft 411 kts 154°
2026-05-06 11:17 51.71903 13.38511 17819 ft 408 kts 154°
2026-05-06 11:17 51.69464 13.40813 17282 ft 405 kts 154°
2026-05-06 11:17 51.67036 13.43102 16758 ft 403 kts 154°
2026-05-06 11:17 51.64624 13.45373 16242 ft 401 kts 154°
2026-05-06 11:18 51.62224 13.47630 15732 ft 398 kts 154°
2026-05-06 11:18 51.59843 13.49867 15222 ft 395 kts 154°
2026-05-06 11:18 51.57514 13.52057 14747 ft 381 kts 154°
2026-05-06 11:18 51.56612 13.52905 14546 ft 376 kts 154°
2026-05-06 11:19 51.54632 13.54763 14123 ft 368 kts 154°
2026-05-06 11:19 51.52436 13.56818 13641 ft 364 kts 154°
2026-05-06 11:19 51.50242 13.58866 13100 ft 363 kts 154°
2026-05-06 11:19 51.48061 13.60900 12566 ft 361 kts 154°
2026-05-06 11:20 51.45871 13.62794 12041 ft 357 kts 154°
2026-05-06 11:20 51.43988 13.65387 11538 ft 362 kts 131°
2026-05-06 11:20 51.42902 13.68999 11026 ft 360 kts 107°
2026-05-06 11:20 51.42742 13.72928 10545 ft 356 kts 90°
2026-05-06 11:21 51.42797 13.76834 10059 ft 347 kts 93°
2026-05-06 11:21 51.42668 13.80664 9573 ft 342 kts 98°
2026-05-06 11:21 51.42364 13.84424 9043 ft 339 kts 102°
2026-05-06 11:21 51.41953 13.88065 8533 ft 336 kts 104°
2026-05-06 11:22 51.41463 13.91758 8021 ft 333 kts 105°
2026-05-06 11:22 51.40947 13.95348 7508 ft 330 kts 106°
2026-05-06 11:22 51.40410 13.98923 7010 ft 328 kts 107°
2026-05-06 11:22 51.39867 14.02448 6522 ft 325 kts 107°
2026-05-06 11:23 51.39329 14.05901 5832 ft 324 kts 107°
2026-05-06 11:23 51.38754 14.09378 4994 ft 319 kts 115°
2026-05-06 11:23 51.37506 14.12124 4178 ft 300 kts 146°
2026-05-06 11:23 51.35700 14.13389 3396 ft 281 kts 178°
2026-05-06 11:24 51.33906 14.12869 2970 ft 250 kts 214°
2026-05-06 11:24 51.32859 14.11001 2887 ft 214 kts 250°
2026-05-06 11:24 51.32378 14.08867 2921 ft 200 kts 244°
2026-05-06 11:24 51.31476 14.07197 2918 ft 200 kts 228°
2026-05-06 11:25 51.30752 14.05324 2935 ft 200 kts 251°
2026-05-06 11:25 51.30157 14.03302 2923 ft 203 kts 240°
2026-05-06 11:25 51.29361 14.01432 2925 ft 204 kts 236°
2026-05-06 11:25 51.28513 13.99618 2928 ft 204 kts 235°
2026-05-06 11:26 51.27658 13.97815 2932 ft 203 kts 235°
2026-05-06 11:26 51.26860 13.95992 2921 ft 195 kts 238°
2026-05-06 11:26 51.26078 13.94378 2924 ft 176 kts 229°
2026-05-06 11:26 51.25196 13.93047 2907 ft 175 kts 224°
2026-05-06 11:27 51.24275 13.91777 2926 ft 174 kts 224°
2026-05-06 11:27 51.23356 13.90512 2912 ft 174 kts 223°
2026-05-06 11:27 51.22448 13.89255 2869 ft 173 kts 224°
2026-05-06 11:27 51.21543 13.87999 2649 ft 172 kts 225°
2026-05-06 11:28 51.20636 13.86743 2401 ft 174 kts 225°
2026-05-06 11:28 51.19740 13.85507 2157 ft 163 kts 225°
2026-05-06 11:28 51.18924 13.84386 1951 ft 149 kts 227°
2026-05-06 11:28 51.18166 13.83335 1755 ft 139 kts 226°
2026-05-06 11:29 51.17455 13.82354 1587 ft 133 kts 226°
2026-05-06 11:29 51.16798 13.81385 1448 ft 128 kts 226°
2026-05-06 11:29 51.16108 13.80457 1217 ft 130 kts 222°
2026-05-06 11:29 51.15421 13.79526 1080 ft 130 kts 224°
2026-05-06 11:30 51.14726 13.78569 847 ft 136 kts 223°
2026-05-06 11:30 51.14026 13.77610 738 ft 130 kts 224°
2026-05-06 11:30 51.13377 13.76713 741 ft 115 kts 221°
2026-05-06 11:30 51.12931 13.76100 751 ft 74 kts 222°
2026-05-06 11:31 51.12649 13.75704 768 ft 33 kts 221°
2026-05-06 11:31 51.12517 13.75533 771 ft 9 kts 210°
2026-05-06 11:31 51.12468 13.75512 772 ft 3 kts 169°
2026-05-06 11:31 51.12447 13.75536 771 ft 7 kts 139°
2026-05-06 11:32 51.12395 13.75662 768 ft 18 kts 114°
2026-05-06 11:32 51.12373 13.75806 768 ft 6 kts 62°
2026-05-06 11:32 51.12445 13.75917 767 ft 24 kts 38°
2026-05-06 11:32 51.12620 13.76156 753 ft 34 kts 40°
2026-05-06 11:33 51.12736 13.76316 748 ft 21 kts 41°
2026-05-06 11:33 51.12794 13.76427 751 ft 8 kts 79°
2026-05-06 11:33 51.12778 13.76483 751 ft 8 kts 133°
2026-05-06 11:33 51.12716 13.76589 752 ft 17 kts 131°
2026-05-06 11:34 51.12656 13.76678 755 ft 3 kts 184°
2026-05-06 11:34 51.12652 13.76673 752 ft 3 kts 217°
2026-05-06 11:34 51.12614 13.76630 755 ft 13 kts 219°
2026-05-06 11:34 51.12600 13.76611 754 ft 2 kts 219°
2026-05-06 11:35 51.12600 13.76610 754 ft 0 kts 219°